Weather History for Gillette, WY

Change the Weather History Date:

Thursday, July 18, 2013

  Actual Average Record
Temperature  
Mean Temperature 76 °F 72 °F  
Max Temperature 90 °F 87 °F 104 °F (2006)
Min Temperature 61 °F 57 °F 42 °F (1972)
Degree Days  
Heating Degree Days 0 0  
Month to date heating degree days 0 14  
Since 1 June heating degree days 117 156  
Since 1 July heating degree days 0 14  
Cooling Degree Days 11 8  
Month to date cooling degree days 150 112  
Year to date cooling degree days 204 180  
Since 1 June cooling degree days 196 172  
Growing Degree Days 27 (Base 50)    
Moisture  
Dew Point 55 °F    
Average Humidity 57    
Maximum Humidity 87    
Minimum Humidity 26    
Precipitation  
Precipitation 0.00 in 0.06 in 1.06 in (1928)
Month to date precipitation 2.22 1.00  
Year to date precipitation 11.77 8.87  
Sea Level Pressure  
Sea Level Pressure 29.95 in    
Wind  
Wind Speed 7 mph (North)    
Max Wind Speed 21 mph    
Max Gust Speed 26 mph    
Visibility 10 miles    
Events      
T = Trace of Precipitation, MM = Missing Value Source: NWS Daily Summary

Daily Weather History Graph

Daily Weather History Graph

Search for Another Location

Airport:

Trip Planner

Search our weather history database for the weather conditions in past years. The results will help you decide how hot, cold, wet, or windy it might be!

Date:

Astronomy

Jul. 18, 2013 Rise Set
Actual Time 5:35 AM MDT 8:41 PM MDT
Civil Twilight 5:00 AM MDT 9:15 PM MDT
Nautical Twilight 4:15 AM MDT 10:00 PM MDT
Astronomical Twilight 3:21 AM MDT 10:54 PM MDT
Moon 4:39 PM MDT (7/18) 1:29 AM MDT (7/18)
Length of Visible Light 16h 15m
Length of Day
15h 05m
Waxing Gibbous, 78% of the Moon is Illuminated
Jul 18
Waxing Gibbous
Jul 22
Full
Jul 29
Last Quarter
Aug 6
New
Aug 14
First Quarter

Hourly Weather History & Observations

Time (MDT) Temp. Heat Index Dew Point Humidity Pressure Visibility Wind Dir Wind Speed Gust Speed Precip Events Conditions
12:53 AM 70.0 °F - 59.0 °F 68% 29.93 in 10.0 mi Calm Calm - N/A   Clear
1:53 AM 73.0 °F - 55.0 °F 53% 29.92 in 10.0 mi West 5.8 mph - N/A   Clear
2:53 AM 72.0 °F - 55.9 °F 57% 29.92 in 10.0 mi WNW 6.9 mph - N/A   Clear
3:53 AM 68.0 °F - 57.9 °F 70% 29.92 in 10.0 mi Calm Calm - N/A   Clear
4:53 AM 64.0 °F - 60.1 °F 87% 29.92 in 10.0 mi SW 3.5 mph - N/A   Clear
5:53 AM 68.0 °F - 62.1 °F 81% 29.94 in 10.0 mi WNW 8.1 mph - N/A   Clear
6:53 AM 69.1 °F - 63.0 °F 81% 29.95 in 10.0 mi Calm Calm - N/A   Clear
7:53 AM 71.1 °F - 63.0 °F 75% 29.97 in 10.0 mi North 4.6 mph - N/A   Clear
8:53 AM 77.0 °F - 63.0 °F 62% 30.00 in 10.0 mi North 6.9 mph - N/A   Clear
9:53 AM 81.0 °F 81.0 °F 57.0 °F 44% 29.99 in 10.0 mi NNW 16.1 mph 20.7 mph N/A   Clear
10:53 AM 84.0 °F 82.6 °F 54.0 °F 35% 29.97 in 10.0 mi North 20.7 mph - N/A   Clear
11:53 AM 84.9 °F 83.2 °F 53.1 °F 33% 29.97 in 10.0 mi North 16.1 mph 23.0 mph N/A   Clear
12:53 PM 86.0 °F 84.0 °F 53.1 °F 32% 29.96 in 10.0 mi North 5.8 mph 16.1 mph N/A   Clear
1:53 PM 88.0 °F - 50.0 °F 27% 29.93 in 10.0 mi NNW 6.9 mph 17.3 mph N/A   Clear
2:53 PM 89.1 °F - 50.0 °F 26% 29.92 in 10.0 mi Variable 5.8 mph - N/A   Clear
3:53 PM 90.0 °F - 51.1 °F 26% 29.92 in 10.0 mi North 9.2 mph - N/A   Clear
4:53 PM 86.0 °F - 52.0 °F 31% 29.92 in 10.0 mi North 8.1 mph - N/A   Clear
5:53 PM 89.1 °F 86.7 °F 53.1 °F 29% 29.91 in 10.0 mi NE 6.9 mph - N/A   Mostly Cloudy
6:53 PM 84.9 °F - 52.0 °F 32% 29.92 in 10.0 mi NE 11.5 mph - N/A   Partly Cloudy
7:53 PM 82.9 °F - 52.0 °F 34% 29.94 in 10.0 mi NE 13.8 mph - N/A   Mostly Cloudy
8:53 PM 78.1 °F - 53.1 °F 42% 29.95 in 10.0 mi NE 8.1 mph - N/A   Clear
9:53 PM 75.0 °F - 48.9 °F 40% 29.99 in 10.0 mi North 3.5 mph - N/A   Clear
10:53 PM 64.9 °F - 52.0 °F 63% 30.00 in 10.0 mi Calm Calm - N/A   Clear
11:53 PM 63.0 °F - 52.0 °F 67% 30.01 in 10.0 mi Calm Calm - N/A   Clear